Weather History for Buffalo, SD

Change the Weather History Date:

Wednesday, October 16, 2013

  Actual Average Record
Temperature  
Mean Temperature 43 °F 45 °F  
Max Temperature 57 °F 57 °F 73 °F (1997)
Min Temperature 28 °F 33 °F 23 °F (2001)
Degree Days  
Heating Degree Days 22 20  
Month to date heating degree days 316 272  
Since 1 July heating degree days 445 563  
Cooling Degree Days 0 0  
Month to date cooling degree days 0 0  
Year to date cooling degree days 587 512  
Moisture  
Dew Point 30 °F    
Average Humidity 64    
Maximum Humidity 92    
Minimum Humidity 35    
Precipitation  
Precipitation 0.00 in 0.03 in 0.19 in (2006)
Month to date precipitation 0.50 0.17  
Year to date precipitation 12.15 13.39  
Sea Level Pressure  
Sea Level Pressure 29.97 in    
Wind  
Wind Speed 13 mph (West)    
Max Wind Speed 29 mph    
Max Gust Speed 32 mph    
T = Trace of Precipitation, MM = Missing Value Source: NWS Daily Summary

Daily Weather History Graph

Daily Weather History Graph

Search for Another Location

Airport:

Trip Planner

Search our weather history database for the weather conditions in past years. The results will help you decide how hot, cold, wet, or windy it might be!

Date:

Astronomy

Oct. 16, 2013 Rise Set
Actual Time 7:12 AM MDT 6:06 PM MDT
Civil Twilight 6:42 AM MDT 6:36 PM MDT
Nautical Twilight 6:07 AM MDT 7:10 PM MDT
Astronomical Twilight 5:33 AM MDT 7:44 PM MDT
Moon 4:51 PM MDT (10/16) 4:36 AM MDT (10/16)
Length of Visible Light 11h 53m
Length of Day
10h 53m
Waxing Gibbous, 94% of the Moon is Illuminated
Oct 16
Waxing Gibbous
Oct 18
Full
Oct 26
Last Quarter
Nov 3
New
Nov 9
First Quarter

Hourly Weather History & Observations

Time (MDT) Temp. Windchill Dew Point Humidity Pressure Visibility Wind Dir Wind Speed Gust Speed Precip Events Conditions
12:56 AM 30.0 °F 23.2 °F 26.1 °F 85% 30.10 in - West 6.9 mph - N/A   Unknown
1:56 AM 30.0 °F 21.7 °F 26.1 °F 85% 30.08 in - West 9.2 mph - N/A   Unknown
2:56 AM 30.0 °F 20.5 °F 26.1 °F 85% 30.06 in - West 11.5 mph - N/A   Unknown
3:56 AM 28.9 °F 21.1 °F 26.1 °F 89% 30.04 in - West 8.1 mph - N/A   Unknown
4:56 AM 30.0 °F 22.4 °F 26.1 °F 85% 30.02 in - West 8.1 mph - N/A   Unknown
5:56 AM 30.0 °F 21.1 °F 26.1 °F 85% 30.01 in - West 10.4 mph - N/A   Unknown
6:56 AM 30.9 °F 22.8 °F 26.1 °F 82% 30.00 in - West 9.2 mph - N/A   Unknown
7:56 AM 30.9 °F 21.7 °F 27.0 °F 85% 30.00 in - West 11.5 mph - N/A   Unknown
8:56 AM 35.1 °F 27.9 °F 30.0 °F 82% 30.00 in - West 9.2 mph - N/A   Unknown
9:56 AM 43.0 °F 36.4 °F 33.1 °F 68% 29.98 in - WSW 12.7 mph - N/A   Unknown
10:56 AM 48.0 °F - 30.0 °F 50% 29.97 in - West 15.0 mph 19.6 mph N/A   Unknown
11:56 AM 51.1 °F - 28.9 °F 43% 29.96 in - West 15.0 mph - N/A   Unknown
12:56 PM 53.1 °F - 30.0 °F 41% 29.94 in - West 11.5 mph - N/A   Unknown
1:56 PM 55.9 °F - 28.9 °F 36% 29.91 in - WNW 12.7 mph 17.3 mph N/A   Unknown
2:56 PM 55.9 °F - 30.0 °F 37% 29.90 in - West 12.7 mph - N/A   Unknown
3:56 PM 55.9 °F - 30.0 °F 37% 29.89 in - West 11.5 mph - N/A   Unknown
4:56 PM 54.0 °F - 30.9 °F 41% 29.90 in - WNW 12.7 mph - N/A   Unknown
5:56 PM 48.0 °F - 32.0 °F 54% 29.91 in - WNW 10.4 mph - N/A   Unknown
6:56 PM 44.1 °F 37.7 °F 30.9 °F 60% 29.93 in - NW 12.7 mph - N/A   Unknown
7:56 PM 41.0 °F 35.2 °F 32.0 °F 70% 29.94 in - WNW 9.2 mph - N/A   Unknown
8:56 PM 41.0 °F 33.1 °F 33.1 °F 73% 29.94 in - WNW 15.0 mph - N/A   Unknown
9:56 PM 41.0 °F 32.8 °F 32.0 °F 70% 29.94 in - WNW 16.1 mph - N/A   Unknown
10:56 PM 42.1 °F 34.2 °F 34.0 °F 73% 29.94 in - NNW 16.1 mph - N/A   Unknown
11:56 PM 39.9 °F 30.8 °F 35.1 °F 83% 29.95 in - NNW 18.4 mph 28.8 mph N/A   Unknown